User: anonymous   Login
Location: Unspecified
(0.0000°N, 0.0000°E)
Time: 07:29:13
(UTC+00:00)
Language:

AOBA-VELOX 3 - Orbit

View from above orbital plane
View from above orbital plane
View from above satellite
View from above satellite

Ground track
Ground track

The orbit data is extracted from the following two-line orbital elements,

1 41935U 98067KX  17148.52221770 +.00023425 +00000-0 +30103-3 0  9995
2 41935 051.6395 133.7742 0004013 189.1862 170.9058 15.58970751020575
Epoch (UTC): 28 May 2017 12:31:59
Eccentricity: 0.0004013
inclination: 51.6395°
perigee height: 388 km
apogee height: 393 km
right ascension of ascending node: 133.7742°
argument of perigee: 189.1862°
revolutions per day: 15.58970751
mean anomaly at epoch: 170.9058°
orbit number at epoch: 2057

The dashed part of the orbit path shows where the satellite is in the earth's shadow,  

DLR